Location: Nairn
(57.5833°N, 3.8667°W)
Time: 19:13:50
(UTC+00:00)

Tiros 1 - Pass Details

Date: 04 December 2020
Orbit: 630 x 663 km, 48.4° (Epoch: 22 January)

Event Time Altitude Azimuth Distance (km) Brightness Sun altitude
Rises 13:55:55 0° 211° (SSW) 2,988 13.1 6.8°
Reaches altitude 10° 13:59:02 10° 191° (S) 2,079 11.7 6.6°
Maximum altitude 14:01:58 16° 153° (SSE) 1,697 9.9 6.5°
Drops below altitude 10° 14:04:55 10° 115° (ESE) 2,081 9.8 6.3°
Sets 14:08:01 0° 94° (E) 2,992 10.3 6.1°
